[[{"header":{"parameterUnit":"m.s-1","parameterCategory":1,"la1":30.2991,"la2":30.254,"lo1":-89.0895,"lo2":-89.0444,"dy":0.0017,"dx":0.0017,"nx":28,"ny":28,"refTime":"2023-08-30T09:00:00:Z","depth":0,"parameterNumber":2,"parameterNumberName":"U-component_of_WINDS"},"data":[0,0,0,0,0,0,0,0,0,0,0,0,0,0,0,0,0,0,0,0,0,0,0,0,0,0,0,0,0,0,0,0,0,0,0,0,0,0,0,0,0,0,0,0,0,0,0,0,0,0,0,0,0,0,0,0,0,0,1.0258,1.0258,0,1.026,1.026,1.026,1.023,1.023,1.0229,1.0228,1.023,1.0231,1.0232,0,0,0,0,0,0,0,0,0,0,0,0,0,1.0229,1.0229,1.0258,1.0258,1.0258,1.026,1.026,1.026,1.0231,1.023,1.0229,1.0228,1.023,1.0231,1.0232,0,0,0,0,0,0,0,0,0,0,0,0,0,1.0237,1.023,1.0258,1.0244,1.0242,1.026,1.026,1.026,1.0231,1.023,1.0228,1.0227,1.023,1.0231,1.0232,1.0264,0,0,1.0236,1.0236,0,0,0,0,0,0,0,0,1.0237,1.0238,1.0246,1.0245,1.0243,1.0244,1.0251,1.0262,1.0231,1.0235,1.0228,1.0227,1.0236,1.0236,1.024,1.0264,1.0264,1.0236,1.0237,1.0237,1.0238,0,0,0,0,0,0,0,1.0236,1.0238,1.0259,1.0246,1.0244,1.0237,1.0237,1.0253,1.0242,1.0235,1.0233,1.0233,1.0235,1.0238,1.0239,1.0264,1.0236,1.0237,1.0238,1.0238,1.0317,1.0318,0,0,0,0,0,0,1.0238,1.0238,1.0259,1.0259,1.0237,1.0239,1.0239,1.0245,1.0242,1.024,1.0234,1.0232,1.0237,1.0238,1.0239,1.0278,1.0237,1.0238,1.0239,1.0316,1.0317,1.0319,0,0,0,0,0,0,1.0237,1.024,1.0259,1.0248,1.025,1.024,1.0248,1.0246,1.0249,1.0242,1.024,1.024,1.0236,1.0238,1.0259,1.0277,1.0239,1.024,1.0314,1.0316,1.0318,1.0354,0,0,0,0,0,0,1.0236,1.024,1.0252,1.0248,1.025,1.0278,1.0249,1.0247,1.0251,1.0248,1.0246,1.0245,1.0235,1.0257,1.026,1.0278,1.0241,1.0312,1.0315,1.0317,1.0351,1.0357,1.0362,0,0,0,0,0,1.0235,1.0261,1.0252,1.0255,1.0265,1.0279,1.028,1.0268,1.0253,1.0265,1.0261,1.0245,1.0275,1.0259,1.0262,1.0281,1.0311,1.0314,1.0317,1.0349,1.0356,1.0362,0,0,0,0,0,0,1.0266,1.026,1.025,1.0276,1.0278,1.0274,1.0289,1.0276,1.0283,1.028,1.0265,1.0265,1.0288,1.0287,1.027,1.0313,1.029,1.0294,1.0313,1.032,1.0325,1.0325,1.0242,0,0,0,0,0,1.0276,1.0288,1.0282,1.0305,1.0307,1.0298,1.0303,1.0294,1.0296,1.0297,1.0294,1.0296,1.0306,1.0313,1.0321,1.0351,1.035,1.0366,1.0371,1.0376,1.0379,1.0396,1.0402,1.0329,1.0329,1.0329,0,0,1.0297,1.0295,1.0303,1.0312,1.0312,1.0325,1.0299,1.0313,1.0323,1.0299,1.0319,1.0317,1.0318,1.0344,1.0355,1.0344,1.0399,1.0379,1.0383,1.0384,1.0399,1.0406,1.0413,1.0331,1.0331,1.033,0,0,1.0341,1.034,1.036,1.0362,1.0363,1.0357,1.0362,1.036,1.0357,1.0377,1.036,1.0371,1.0388,1.0391,1.0394,1.044,1.0427,1.0444,1.0472,1.0489,1.0494,1.0499,1.0517,1.0523,1.0447,1.0447,1.0447,0,1.0366,1.0385,1.0372,1.0388,1.0392,1.0372,1.0392,1.0394,1.0399,1.0402,1.0389,1.0411,1.0411,1.0437,1.0449,1.0452,1.0458,1.0444,1.0495,1.0499,1.0504,1.052,1.0527,1.0449,1.0449,1.0449,1.0449,0,1.0416,1.0429,1.0445,1.045,1.0457,1.0475,1.0465,1.0473,1.0464,1.0459,1.048,1.0479,1.0488,1.0494,1.0484,1.0519,1.0512,1.0497,1.0474,1.0513,1.0529,1.0535,1.0452,1.0452,1.0451,1.045,0,0,1.0479,1.0478,1.0484,1.0487,1.0487,1.0497,1.0515,1.0524,1.0531,1.0535,1.055,1.0566,1.0552,1.0556,1.0547,1.0561,1.0599,1.0545,1.0545,1.0556,1.0639,1.065,1.0658,1.059,1.0592,1.0592,1.0639,0,1.0522,1.0552,1.0542,1.0572,1.0585,1.0566,1.0582,1.0584,1.0581,1.0591,1.0587,1.0599,1.058,1.0582,1.0596,1.0592,1.0616,1.0588,1.0604,1.0605,1.0605,1.0665,1.0678,1.0721,1.0645,1.0646,1.0646,0,1.0577,1.0583,1.0616,1.0615,1.062,1.0634,1.0642,1.0652,1.0655,1.0651,1.0657,1.0645,1.0663,1.064,1.0664,1.0646,1.0652,1.0651,1.0653,1.0654,1.0628,1.0669,1.0735,1.0742,1.0655,1.0655,1.0654,0,1.062,1.0637,1.0659,1.0662,1.0662,1.0672,1.0673,1.0675,1.0681,1.0688,1.0692,1.0701,1.0706,1.0713,1.0704,1.0688,1.0731,1.0707,1.0729,1.0729,1.0739,1.0738,1.0807,1.0742,1.0742,1.0742,1.0742,0,1.067,1.0691,1.0679,1.0692,1.0715,1.0703,1.0726,1.0725,1.0727,1.074,1.0724,1.0737,1.0724,1.0736,1.0729,1.0751,1.0753,1.0751,1.075,1.0753,1.0754,1.0757,1.0754,1.0743,1.0743,1.0743,1.0742,0,1.0723,1.0716,1.0738,1.0737,1.0737,1.0754,1.0753,1.0765,1.0761,1.0778,1.0781,1.0775,1.0788,1.078,1.0793,1.0789,1.0818,1.0811,1.0817,1.0815,1.0838,1.0837,1.0912,1.0922,1.085,1.0851,1.0851,0,1.0755,1.077,1.0771,1.0779,1.0781,1.0793,1.08,1.0789,1.0797,1.0802,1.0814,1.0826,1.0835,1.0857,1.0853,1.0864,1.0858,1.0884,1.0859,1.0863,1.0859,1.0859,1.086,1.0889,1.089,1.089,1.0891,0,1.0813,1.081,1.082,1.0829,1.0838,1.0845,1.085,1.0858,1.0847,1.0857,1.087,1.0877,1.0891,1.0903,1.0912,1.0913,1.0901,1.0899,1.0904,1.0908,1.0911,1.0911,1.0831,1.0897,1.0896,1.0896,1.0895,1.0895,1.0857,1.0871,1.0874,1.0886,1.0889,1.0895,1.0907,1.0905,1.0916,1.0927,1.092,1.0936,1.0939,1.095,1.0953,1.0965,1.0955,1.0963,1.0965,1.0968,1.0971,1.0909,1.0967,1.0967,1.0967,1.0966,1.0966,0,1.0916,1.0917,1.0928,1.0937,1.0947,1.0935,1.094,1.095,1.0964,1.0968,1.0978,1.0994,1.1006,1.1004,1.1015,1.1026,1.102,1.1029,1.1028,1.1029,1.0979,1.0974,1.1033,1.1033,1.1033,1.1033,1.1033,1.1033,1.0947,1.0969,1.0966,1.099,1.0991,1.1007,1.1012,1.1018,1.1021,1.104,1.105,1.1049,1.1051,1.1062,1.1073,1.1072,1.1077,1.1088,1.1085,1.1039,1.1032,1.1026,1.1021,1.1089,1.1089,1.1134,1.1134,1.1134]},{"header":{"parameterUnit":"m.s-1","parameterCategory":1,"la1":30.2991,"la2":30.254,"lo1":-89.0895,"lo2":-89.0444,"dy":0.0017,"dx":0.0017,"nx":28,"ny":28,"refTime":"2023-08-30T09:00:00:Z","depth":0,"parameterNumber":3,"parameterNumberName":"V-component_of_WINDS"},"data":[0,0,0,0,0,0,0,0,0,0,0,0,0,0,0,0,0,0,0,0,0,0,0,0,0,0,0,0,0,0,0,0,0,0,0,0,0,0,0,0,0,0,0,0,0,0,0,0,0,0,0,0,0,0,0,0,0,0,-6.1814,-6.1815,0,-6.1912,-6.1913,-6.1914,-6.1894,-6.1892,-6.189,-6.1889,-6.1982,-6.1986,-6.199,0,0,0,0,0,0,0,0,0,0,0,0,0,-6.1606,-6.161,-6.1814,-6.1815,-6.1817,-6.1911,-6.1913,-6.1914,-6.1894,-6.1892,-6.189,-6.1888,-6.1981,-6.1985,-6.199,0,0,0,0,0,0,0,0,0,0,0,0,0,-6.1699,-6.1612,-6.1814,-6.1818,-6.182,-6.1911,-6.1913,-6.1914,-6.1895,-6.1892,-6.1889,-6.1887,-6.1979,-6.1985,-6.1991,-6.2082,0,0,-6.201,-6.2013,0,0,0,0,0,0,0,0,-6.1694,-6.1707,-6.1816,-6.1818,-6.182,-6.1888,-6.1874,-6.197,-6.1895,-6.1866,-6.1889,-6.1885,-6.1952,-6.1961,-6.1984,-6.2087,-6.2091,-6.201,-6.2014,-6.2017,-6.2019,0,0,0,0,0,0,0,-6.1688,-6.1703,-6.1852,-6.1818,-6.182,-6.1814,-6.1824,-6.1892,-6.1922,-6.1868,-6.1867,-6.1879,-6.1953,-6.1978,-6.1986,-6.2092,-6.201,-6.2016,-6.202,-6.2022,-6.2276,-6.2279,0,0,0,0,0,0,-6.168,-6.1697,-6.1849,-6.1855,-6.1749,-6.182,-6.1831,-6.1869,-6.1922,-6.1928,-6.1881,-6.1878,-6.1969,-6.1979,-6.199,-6.2102,-6.2017,-6.2023,-6.2026,-6.2273,-6.2277,-6.228,0,0,0,0,0,0,-6.1676,-6.1694,-6.1845,-6.1776,-6.1795,-6.1826,-6.1868,-6.1872,-6.1898,-6.1932,-6.1937,-6.1902,-6.1968,-6.1981,-6.206,-6.2105,-6.2025,-6.2031,-6.227,-6.2274,-6.2279,-6.2325,0,0,0,0,0,0,-6.167,-6.1693,-6.1729,-6.1777,-6.1799,-6.1916,-6.1871,-6.1876,-6.1909,-6.1906,-6.1953,-6.1958,-6.1966,-6.2051,-6.2067,-6.2112,-6.2036,-6.2266,-6.2272,-6.2277,-6.232,-6.2331,-6.234,0,0,0,0,0,-6.1663,-6.1736,-6.1731,-6.1749,-6.1845,-6.1919,-6.1931,-6.1941,-6.1913,-6.1949,-6.1971,-6.1957,-6.2097,-6.206,-6.2077,-6.2124,-6.2263,-6.227,-6.2277,-6.2316,-6.2329,-6.234,0,0,0,0,0,0,-6.1688,-6.1742,-6.1737,-6.1828,-6.187,-6.1915,-6.196,-6.1954,-6.2002,-6.1997,-6.2005,-6.2016,-6.2097,-6.2118,-6.2075,-6.2216,-6.2176,-6.2187,-6.22,-6.2213,-6.2223,-6.2216,-6.2041,0,0,0,0,0,-6.1705,-6.1763,-6.1806,-6.1882,-6.1903,-6.1929,-6.1961,-6.1966,-6.2008,-6.2024,-6.2052,-6.2092,-6.2145,-6.218,-6.2231,-6.2323,-6.2334,-6.2364,-6.2375,-6.2383,-6.2392,-6.2444,-6.2458,-6.2303,-6.2303,-6.2302,0,0,-6.1739,-6.1776,-6.1811,-6.1888,-6.1921,-6.1979,-6.1943,-6.2005,-6.2049,-6.2033,-6.2111,-6.2133,-6.2178,-6.2265,-6.2304,-6.2285,-6.2437,-6.2392,-6.2398,-6.2402,-6.2452,-6.2467,-6.248,-6.2307,-6.2306,-6.2306,0,0,-6.1832,-6.1865,-6.1934,-6.1968,-6.2019,-6.2036,-6.2052,-6.21,-6.2115,-6.2194,-6.2184,-6.2235,-6.2326,-6.2359,-6.2388,-6.2497,-6.2485,-6.2513,-6.2566,-6.2616,-6.2629,-6.264,-6.2679,-6.2694,-6.2521,-6.2522,-6.2522,0,-6.1867,-6.1957,-6.1969,-6.2034,-6.2069,-6.206,-6.213,-6.2161,-6.2225,-6.2249,-6.2227,-6.2343,-6.2372,-6.2468,-6.2495,-6.2518,-6.2537,-6.2507,-6.2626,-6.2637,-6.2648,-6.2686,-6.2701,-6.2525,-6.2524,-6.2524,-6.2524,0,-6.1999,-6.2061,-6.211,-6.2175,-6.2215,-6.2282,-6.2303,-6.2342,-6.2344,-6.2363,-6.2444,-6.2479,-6.2538,-6.2561,-6.2562,-6.2658,-6.2644,-6.2624,-6.2584,-6.2666,-6.2702,-6.2716,-6.2529,-6.2528,-6.2527,-6.2526,0,0,-6.2108,-6.2183,-6.22,-6.2231,-6.2288,-6.2335,-6.2402,-6.2462,-6.2496,-6.254,-6.2596,-6.2675,-6.2658,-6.2691,-6.2696,-6.274,-6.2826,-6.2715,-6.2716,-6.2735,-6.2935,-6.295,-6.2967,-6.2819,-6.2822,-6.2824,-6.2932,0,-6.2207,-6.2327,-6.2341,-6.2447,-6.2505,-6.25,-6.2557,-6.2598,-6.2618,-6.2669,-6.269,-6.2747,-6.2719,-6.2739,-6.2783,-6.2806,-6.2866,-6.2799,-6.2871,-6.2873,-6.286,-6.2986,-6.3001,-6.3101,-6.2946,-6.2948,-6.295,0,-6.2337,-6.239,-6.2503,-6.2554,-6.2579,-6.2631,-6.2689,-6.2738,-6.2784,-6.2796,-6.2834,-6.2834,-6.2902,-6.286,-6.2953,-6.2907,-6.2937,-6.2953,-6.2957,-6.2964,-6.2916,-6.2997,-6.3133,-6.3148,-6.2972,-6.297,-6.2968,0,-6.2408,-6.2506,-6.2587,-6.2613,-6.2675,-6.2712,-6.2739,-6.2783,-6.2819,-6.2869,-6.2893,-6.2949,-6.298,-6.3023,-6.3037,-6.3005,-6.3131,-6.3089,-6.3142,-6.3142,-6.3168,-6.3167,-6.3312,-6.3187,-6.3187,-6.3187,-6.3186,0,-6.2516,-6.2586,-6.262,-6.267,-6.2748,-6.2763,-6.2839,-6.2864,-6.2904,-6.2958,-6.2955,-6.3005,-6.3022,-6.3074,-6.3086,-6.3163,-6.3176,-6.3187,-6.3189,-6.3188,-6.3186,-6.3207,-6.3201,-6.3191,-6.319,-6.3189,-6.3188,0,-6.2608,-6.2633,-6.2721,-6.2774,-6.2789,-6.2844,-6.2889,-6.2936,-6.2957,-6.3025,-6.3042,-6.3073,-6.3136,-6.3155,-6.3229,-6.3237,-6.3327,-6.3322,-6.3312,-6.3313,-6.3365,-6.336,-6.3529,-6.3553,-6.3412,-6.3413,-6.3414,0,-6.2676,-6.273,-6.279,-6.2827,-6.2857,-6.2916,-6.2955,-6.2972,-6.3012,-6.307,-6.3111,-6.3174,-6.3225,-6.3324,-6.3352,-6.341,-6.3407,-6.3462,-6.3415,-6.3413,-6.3409,-6.3406,-6.3412,-6.3471,-6.3473,-6.3474,-6.3475,0,-6.2794,-6.2805,-6.2862,-6.2924,-6.297,-6.3019,-6.3066,-6.3096,-6.3121,-6.3165,-6.3231,-6.3271,-6.3349,-6.3411,-6.347,-6.3495,-6.349,-6.349,-6.3505,-6.3504,-6.3497,-6.3503,-6.3337,-6.3485,-6.3484,-6.3484,-6.3483,-6.3483,-6.2876,-6.2925,-6.2976,-6.304,-6.3078,-6.3123,-6.3171,-6.3199,-6.3255,-6.3322,-6.3328,-6.3399,-6.3445,-6.3524,-6.3554,-6.3609,-6.3592,-6.3614,-6.362,-6.3625,-6.363,-6.3488,-6.3619,-6.3619,-6.3618,-6.3618,-6.3618,0,-6.2996,-6.3029,-6.3088,-6.3156,-6.3206,-6.3199,-6.3251,-6.3293,-6.3357,-6.3402,-6.3453,-6.3529,-6.359,-6.3625,-6.3685,-6.3723,-6.3722,-6.3738,-6.3736,-6.3742,-6.3641,-6.3622,-6.3738,-6.3738,-6.3738,-6.3738,-6.3738,-6.3738,-6.3064,-6.3147,-6.3164,-6.3266,-6.3298,-6.337,-6.3401,-6.3442,-6.3479,-6.3565,-6.3617,-6.364,-6.3681,-6.3745,-6.3801,-6.3809,-6.3832,-6.385,-6.3857,-6.3761,-6.3749,-6.3737,-6.372,-6.3855,-6.3855,-6.3954,-6.3955,-6.3956]}]]